| time (UTC) | temp F | wind direction | speed MPH | gust MPH | rain 1hr in | rain 24hr in | rain mn in | humidity % | barometer mb |
| 20260905114548 | 76 | 35 | 6.0 | 9.0 | 0.00 | 0.00 | 0.00 | 78 | 1011.1 |
| 20260905113052 | 76 | 51 | 3.0 | 9.0 | 0.00 | 0.00 | 0.00 | 84 | 1011.0 |
| 20260905111608 | 75 | 38 | 5.0 | 9.0 | 0.00 | 0.00 | 0.00 | 86 | 1010.9 |
| 20260905110056 | 75 | 37 | 4.0 | 10.0 | 0.00 | 0.00 | 0.00 | 87 | 1010.8 |
| 20260905104557 | 75 | 23 | 4.0 | 10.0 | 0.00 | 0.00 | 0.00 | 87 | 1010.6 |
| 20260905103054 | 75 | 17 | 4.0 | 11.0 | 0.00 | 0.00 | 0.00 | 88 | 1010.3 |
| 20260905101552 | 75 | 36 | 5.0 | 11.0 | 0.00 | 0.00 | 0.00 | 89 | 1010.0 |
| 20260905100052 | 75 | 5 | 4.0 | 9.0 | 0.00 | 0.00 | 0.00 | 93 | 1009.9 |
| 20260905094554 | 75 | 321 | 3.0 | 9.0 | 0.00 | 0.00 | 0.00 | 94 | 1009.9 |
| 20260905093056 | 74 | 347 | 2.0 | 5.0 | 0.00 | 0.00 | 0.00 | 93 | 1010.0 |
| 20260905091618 | 74 | 0 | 0.0 | 2.0 | 0.00 | 0.00 | 0.00 | 93 | 1009.9 |
| 20260905090128 | 74 | 0 | 1.0 | 2.0 | 0.00 | 0.00 | 0.00 | 92 | 1010.0 |
| 20260905084606 | 74 | 0 | 0.0 | 2.0 | 0.00 | 0.00 | 0.00 | 92 | 1010.1 |
| 20260905083052 | 74 | 13 | 1.0 | 2.0 | 0.00 | 0.00 | 0.00 | 91 | 1010.0 |
| 20260905081552 | 74 | 0 | 0.0 | 2.0 | 0.00 | 0.00 | 0.00 | 91 | 1010.1 |
| 20260905080055 | 74 | 13 | 0.0 | 2.0 | 0.00 | 0.00 | 0.00 | 90 | 1010.0 |
| 20260905074551 | 75 | 13 | 1.0 | 3.0 | 0.00 | 0.03 | 0.00 | 90 | 1010.1 |
| 20260905073053 | 75 | 16 | 0.0 | 3.0 | 0.00 | 0.03 | 0.00 | 90 | 1010.1 |
| 20260905071555 | 75 | 16 | 1.0 | 5.0 | 0.00 | 0.03 | 0.00 | 89 | 1010.3 |
| 20260905070059 | 75 | 16 | 3.0 | 9.0 | 0.00 | 0.03 | 0.00 | 89 | 1010.5 |
| 20260905064552 | 76 | 30 | 6.0 | 12.0 | 0.00 | 0.23 | 0.00 | 89 | 1010.8 |
| 20260905063048 | 76 | 15 | 3.0 | 9.0 | 0.00 | 0.23 | 0.00 | 90 | 1010.9 |
| 20260905061620 | 77 | 345 | 2.0 | 7.0 | 0.00 | 0.23 | 0.00 | 90 | 1010.9 |
| 20260905054608 | 77 | 279 | 3.0 | 6.0 | 0.00 | 0.50 | 0.00 | 88 | 1010.8 |
| 20260905053048 | 77 | 249 | 3.0 | 8.0 | 0.00 | 0.50 | 0.00 | 87 | 1010.7 |
| 20260905051556 | 78 | 244 | 4.0 | 9.0 | 0.00 | 0.50 | 0.00 | 86 | 1010.9 |
| 20260905050052 | 78 | 232 | 2.0 | 7.0 | 0.00 | 0.50 | 0.00 | 85 | 1011.2 |
| 20260905044553 | 78 | 228 | 2.0 | 5.0 | 0.00 | 0.50 | 0.00 | 84 | 1011.3 |
| 20260905043047 | 78 | 228 | 3.0 | 5.0 | 0.00 | 0.50 | 0.00 | 83 | 1011.4 |
| 20260905041601 | 78 | 227 | 2.0 | 5.0 | 0.00 | 0.50 | 0.00 | 82 | 1011.5 |
| 20260905040105 | 79 | 258 | 2.0 | 6.0 | 0.00 | 0.50 | 0.00 | 80 | 1011.5 |
| 20260905034610 | 79 | 259 | 2.0 | 6.0 | 0.00 | 0.50 | 0.50 | 78 | 1011.5 |
| 20260905033105 | 79 | 259 | 2.0 | 6.0 | 0.00 | 0.50 | 0.50 | 78 | 1011.6 |
| 20260905031614 | 79 | 227 | 2.0 | 4.0 | 0.00 | 0.50 | 0.50 | 78 | 1011.8 |
| 20260905030050 | 79 | 227 | 2.0 | 5.0 | 0.00 | 0.50 | 0.50 | 78 | 1011.9 |
| 20260905024600 | 79 | 227 | 2.0 | 5.0 | 0.00 | 0.50 | 0.50 | 78 | 1012.1 |
| 20260905023129 | 79 | 227 | 3.0 | 6.0 | 0.00 | 0.50 | 0.50 | 79 | 1012.1 |
| 20260905021557 | 79 | 233 | 2.0 | 5.0 | 0.00 | 0.50 | 0.50 | 79 | 1012.0 |
| 20260905020058 | 79 | 233 | 2.0 | 5.0 | 0.00 | 0.50 | 0.50 | 79 | 1012.0 |
| 20260905014555 | 79 | 233 | 2.0 | 4.0 | 0.00 | 0.50 | 0.50 | 80 | 1012.1 |
| 20260905013050 | 79 | 0 | 1.0 | 4.0 | 0.00 | 0.50 | 0.50 | 80 | 1012.1 |
| 20260905011601 | 80 | 233 | 2.0 | 4.0 | 0.00 | 0.50 | 0.50 | 80 | 1012.1 |
| 20260905010059 | 80 | 233 | 1.0 | 3.0 | 0.00 | 0.50 | 0.50 | 79 | 1012.2 |
| 20260905004554 | 80 | 233 | 1.0 | 4.0 | 0.00 | 0.50 | 0.50 | 78 | 1012.1 |
| 20260905003051 | 80 | 233 | 2.0 | 4.0 | 0.00 | 0.50 | 0.50 | 77 | 1012.2 |
| 20260905001605 | 81 | 233 | 1.0 | 4.0 | 0.00 | 0.50 | 0.50 | 77 | 1011.7 |
| 20260905000110 | 81 | 233 | 1.0 | 3.0 | 0.00 | 0.50 | 0.50 | 77 | 1011.4 |
| 20260904234553 | 81 | 0 | 1.0 | 4.0 | 0.00 | 0.50 | 0.50 | 76 | 1011.3 |
| 20260904233114 | 82 | 233 | 1.0 | 3.0 | 0.00 | 0.50 | 0.50 | 75 | 1011.5 |
| 20260904231557 | 82 | 233 | 2.0 | 5.0 | 0.00 | 0.50 | 0.50 | 75 | 1011.6 |
| 20260904230054 | 83 | 233 | 2.0 | 5.0 | 0.00 | 0.50 | 0.50 | 75 | 1012.0 |
| 20260904224557 | 83 | 306 | 2.0 | 4.0 | 0.00 | 0.50 | 0.50 | 75 | 1012.3 |
| 20260904223110 | 83 | 306 | 1.0 | 4.0 | 0.00 | 0.50 | 0.50 | 73 | 1012.4 |
| 20260904221558 | 84 | 318 | 1.0 | 4.0 | 0.00 | 0.50 | 0.50 | 72 | 1012.4 |
| 20260904220055 | 84 | 318 | 0.0 | 3.0 | 0.00 | 0.50 | 0.50 | 70 | 1012.3 |
| 20260904214552 | 85 | 0 | 0.0 | 3.0 | 0.00 | 0.50 | 0.50 | 69 | 1012.2 |
| 20260904213055 | 86 | 350 | 0.0 | 2.0 | 0.00 | 0.50 | 0.50 | 68 | 1011.9 |
| 20260904211552 | 85 | 0 | 0.0 | 3.0 | 0.00 | 0.50 | 0.50 | 68 | 1012.0 |
| 20260904210101 | 84 | 350 | 0.0 | 5.0 | 0.00 | 0.50 | 0.50 | 70 | 1012.2 |
| 20260904204559 | 83 | 351 | 1.0 | 5.0 | 0.00 | 0.50 | 0.50 | 71 | 1012.2 |
| 20260904203102 | 83 | 355 | 2.0 | 7.0 | 0.00 | 0.50 | 0.50 | 73 | 1012.1 |
| 20260904201550 | 83 | 5 | 3.0 | 6.0 | 0.00 | 0.50 | 0.50 | 71 | 1012.1 |
| 20260904200054 | 84 | 14 | 4.0 | 7.0 | 0.00 | 0.50 | 0.50 | 69 | 1012.4 |
| 20260904194556 | 84 | 40 | 2.0 | 5.0 | 0.00 | 0.50 | 0.50 | 69 | 1012.5 |
| 20260904193112 | 83 | 5 | 3.0 | 5.0 | 0.00 | 0.50 | 0.50 | 70 | 1012.6 |
| 20260904191556 | 83 | 360 | 3.0 | 8.0 | 0.00 | 0.50 | 0.50 | 71 | 1012.4 |
| 20260904190049 | 83 | 40 | 4.0 | 8.0 | 0.00 | 0.50 | 0.50 | 71 | 1012.6 |
| 20260904184556 | 82 | 55 | 4.0 | 9.0 | 0.00 | 0.50 | 0.50 | 74 | 1012.9 |
| 20260904183053 | 82 | 36 | 3.0 | 7.0 | 0.00 | 0.50 | 0.50 | 73 | 1012.8 |
| 20260904181551 | 82 | 63 | 4.0 | 8.0 | 0.00 | 0.50 | 0.50 | 73 | 1012.9 |
| 20260904174553 | 84 | 26 | 3.0 | 8.0 | 0.00 | 0.50 | 0.50 | 72 | 1013.1 |
| 20260904173107 | 83 | 5 | 5.0 | 9.0 | 0.00 | 0.50 | 0.50 | 72 | 1013.1 |
| 20260904171555 | 84 | 13 | 3.0 | 8.0 | 0.00 | 0.50 | 0.50 | 71 | 1013.2 |
| 20260904170058 | 83 | 333 | 4.0 | 9.0 | 0.00 | 0.50 | 0.50 | 75 | 1013.2 |
| 20260904164553 | 84 | 340 | 4.0 | 8.0 | 0.00 | 0.50 | 0.50 | 73 | 1013.4 |
| 20260904163052 | 85 | 344 | 4.0 | 8.0 | 0.00 | 0.50 | 0.50 | 72 | 1013.5 |
| 20260904161609 | 85 | 21 | 3.0 | 10.0 | 0.00 | 0.50 | 0.50 | 71 | 1013.7 |
| 20260904160100 | 85 | 321 | 3.0 | 10.0 | 0.00 | 0.50 | 0.50 | 71 | 1013.6 |
| 20260904154552 | 85 | 344 | 6.0 | 11.0 | 0.00 | 0.50 | 0.50 | 70 | 1013.5 |
| 20260904153102 | 84 | 262 | 4.0 | 11.0 | 0.00 | 0.50 | 0.50 | 72 | 1013.5 |
| 20260904151558 | 84 | 259 | 4.0 | 11.0 | 0.00 | 0.50 | 0.50 | 72 | 1013.6 |
| 20260904150054 | 83 | 281 | 6.0 | 13.0 | 0.00 | 0.50 | 0.50 | 73 | 1013.4 |
| 20260904144607 | 83 | 351 | 6.0 | 14.0 | 0.00 | 0.50 | 0.50 | 73 | 1013.6 |
| 20260904143058 | 82 | 266 | 6.0 | 15.0 | 0.00 | 0.50 | 0.50 | 75 | 1013.6 |
| 20260904141559 | 82 | 202 | 4.0 | 12.0 | 0.00 | 0.50 | 0.50 | 76 | 1013.8 |
| 20260904140055 | 82 | 283 | 3.0 | 12.0 | 0.00 | 0.50 | 0.50 | 78 | 1013.5 |
| 20260904134555 | 80 | 298 | 5.0 | 14.0 | 0.00 | 0.50 | 0.50 | 80 | 1013.3 |
| 20260904133105 | 79 | 281 | 7.0 | 16.0 | 0.00 | 0.50 | 0.50 | 82 | 1013.6 |
| 20260904131556 | 78 | 249 | 6.0 | 14.0 | 0.00 | 0.50 | 0.50 | 86 | 1013.7 |
| 20260904130057 | 77 | 269 | 8.0 | 16.0 | 0.00 | 0.50 | 0.50 | 88 | 1013.4 |
| 20260904124602 | 76 | 265 | 10.0 | 16.0 | 0.00 | 0.50 | 0.50 | 92 | 1013.3 |
| 20260904123056 | 74 | 263 | 7.0 | 11.0 | 0.00 | 0.50 | 0.50 | 94 | 1013.3 |
| 20260904121553 | 74 | 277 | 6.0 | 14.0 | 0.00 | 0.50 | 0.50 | 95 | 1013.3 |
| 20260904120056 | 73 | 259 | 7.0 | 12.0 | 0.00 | 0.50 | 0.50 | 96 | 1013.3 |